Погода в Уюке

Погода в Уюке : погода сейчас, прогноз погоды и архив. Всё, что Вы хотите узнать о погоде в Уюке!

Поиск расширенной информации на нашем сайте:

Другие новости

Новости СМИ2

Главная страница сайта

Новости сайта

02.10.2013

Напоминаем, что на нашем новом сайте вы можете получить высокодетализированные прогнозы погоды по пунктам России, СНГ и мира (включающие важные для авиации метеовеличины, такие как направление и скорость ветра, видимость, явления погоды, количество и форма облачности, нижняя и верхняя граница облачности), а также ознакомиться с разнообразными материалами по авиационной метеорологии и подборкой полезных ссылок на эту тему.

Сайт Метеоцентр.Азия посвящён разработке технологий оптимизации авиаметеорологического обслуживания, включая проектирование и перспективное создание нескольких автоматизированных авиаметеорологических систем:
- система выпуска высокодетальных прогностических карт явлений погоды для нижнего воздушного пространства по России и ближнему зарубежью;
- система верификации прогнозов TAF (выпускаемых синоптиками официальных АМСГ РФ и ближнего зарубежья) и AUTOTAF (выпускаемых сайтом Метеоцентр.Азия) - выявление ошибок, онлайн-сопоставление с фактической погодой METAR, автоматическое внесение коррективов в прогнозы при резком отклонении фактической погоды от прогноза, подсчёт оправдываемости прогнозов по элементам и в целом;
- система обработки, анализа и отображения авиаметеорологической информации для применения провайдерами метеорологической информации.

Рекомендуем: мольберт детский

Погода в Уюке - сегодня

Время (UTC), дата Ветер
(°,м/с) 
Видим.   Явления Облачность Т
(°С)
Тd
(°С)
f(%) Тe
(°С)
Pmin
(гПа)
dP
(гПа)
Po
(мм)
O2
(г/м3)
Тmin Tmax R s Состояние
почвы
09 23.03.17 140 (ЮВ) 20000 м    8/0 верхняя 
[Ci sp]
+9.2 +2.1 61 +9  1021.4  -0.6  732  285           
12 23.03.17 180 (Ю) 20000 м    4/0 верхняя 
[Ci sp]
+12.9 +5.9 62 +14  1020.7  0.1  732  281           
15 23.03.17 220 (ЮЗ) 20000 м    6/0 верхняя 
[Ci sp]
+6 +0.9 70 +7  1022.7  0.8  733  289    +12.9       
18 23.03.17 170 (Ю) 20000 м    10/0 средняя 
[Ac As]
+5 +0.3 72 +6  1022.7  -0.2  733  290    +12.9       
21 23.03.17 тихо ()   20000 м    9/0 средняя 
[Ac lent]
+3.9 -0.1 75 +4  1022  -0.8  732  291           
00 24.03.17 тихо ()   20000 м    9/0 средняя 
[Ac lent]
+2.1 -1.9 75 +2  1021.7  -0.6  732  293           
03 24.03.17 тихо ()   20000 м    10/10 1000 м 
[Sc]
+3.7 +0 77 +4  1021.4  -0.1  732  291        мокрый или
старый снег
10-40% 
06 24.03.17 290 (З) 20000 м    9/0 средняя 
[Ac und]
+8.4 +2.7 67 +8  1020.2  -0.4  731  285           
09 24.03.17 050 (СВ) 20000 м    9/0 средняя, верхняя 
[Ac lent|Ci sp]
+13.3 +4.6 56 +15  1016.7  -2.5  730  280           
12 24.03.17 320 (СЗ) 20000 м    10/0 средняя 
[Ac As]
+13.1 +5.9 62 +14  1016.6  -0.1  729  279           
15 24.03.17 310 (СЗ) 20000 м    10/10 1000 м 
[Sc]
+7.8 +2.9 71 +9  1020.2  2.6  731  286    +13.4       
18 24.03.17 330 (СЗ) 20000 м    10/10 1000 м 
[Sc]
+5.7 +1.1 72 +7  1021.7  732  289    +13.4       
21 24.03.17 тихо ()   20000 м    10/10 1000 м 
[Sc]
+4.2 +0.3 76 +4  1022.6  0.7  733  291           
00 25.03.17 320 (СЗ) 20000 м    9/6 1000 м средняя 
[Sc|Ac lent]
+4.5 +0.9 77 +5  1023  0.3  733  290           
06 25.03.17 090 (В) 20000 м    10/10 1000 м 
[Sc]
+6.2 +1.2 70 +7  1022.1  -0.9  733  288           
09 25.03.17 тихо ()   20000 м    10/10 1000 м 
[Sc]
+9.8 +2.5 60 +10  1020.2  -1.3  732  284           
12 25.03.17 360 (С) 20000 м    10/10 1000 м 
[Sc]
+10.5 +2.1 56 +12  1019  -1.1  731  283           
15 25.03.17 050 (СВ) 20000 м    10/10 1000 м 
[Sc]
+6.2 +1.2 70 +7  1019.8  0.1  731  288    +10.5       
21 25.03.17 тихо ()   10 км  слаб. дождь  10/10 600 м 
[Ns]
+5.6 +3.2 85 +6  1018.7  -1.5  730  288           
03 26.03.17 270 (З) 10 км  слаб. дождь  10/10 600 м 
[Ns]
+6.2 +3.8 85 +6  1020.7  2.1  732  288         
06 26.03.17 310 (СЗ) 20000 м  {дождь}  10/10 600 м 
[Sc]
+5.1 +2.1 81 +4  1017.4  2.7  734  290         
09 26.03.17 290 (З) 20000 м    10/10 1000 м 
[Sc]
+4.1 -0.8 70 +4  1023.9  734  291           
12 26.03.17 320 (СЗ) 20000 м    10/10 1000 м 
[Sc]
+6 +0.3 67 +5  1023.9  0.4  734  289           
21 26.03.17 тихо ()   20000 м    9/9 1000 м 
[Sc]
+3.5 +0 78 +4  1027.2  0.6  736  293           
00 27.03.17 тихо ()   20000 м    3/0 средняя 
[Ac trans]
+2.1 -1.3 78 +2  1026.1  -1.2  735  294           
Время (UTC), дата Ветер
(°,м/с) 
Видим.   Явления Облачность Т
(°С)
Тd
(°С)
f(%) Тe
(°С)
Pmin
(гПа)
dP
(гПа)
Po
(мм)
O2
(г/м3)
Тmin Tmax R s Состояние
почвы

Для получения пояснительной информации подведите курсор к названию столбца.

ПОГОДА в Уюке - архив

Всё, что Вы хотите узнать о погоде в Уюке - удобно и подробно!

Выберите нужную дату (начиная с 1 января 2015* года) и нажмите кнопку "Найти".
Будут отображены архивные сводки погоды по пункту Уюк, начиная с указанной даты.


Отображать данные в формате CSV (для использования в таблицах Excel)


Внимание! Наш архив погоды предназначен исключительно для личного некоммерческого использования в познавательных целях. Если Вам необходимы официальные справки о состоянии погоды (для производственных, юридических, коммерческих и т.п. целей), обращайтесь в органы Росгидромета.

*Примечание: данная дата относится к архиву по метеостанциям СССР (Россия, СНГ, Балтия).
Архив по метеостанциям Зарубежной Европы и Азии (кроме Китая) хранится 10 дней, по другим регионам земного шара (Китай, Африка, Америка, Австралия, Океания) - 1 день.

Уюк - район местоположения метеостанции


Название, широта, долгота, высота метеостанции:
Уюк 43.8°ш. 70.9°д. 366 м над ур. моря [Казахстан]

Дополнительная информация

В oтличие oт бoльшинства пoгoдных сайтoв мы публикуем пoдрoбную метеoинфoрмацию в детальнoм прoфессиoнальнoм фoрмате.

Характеристики температуры и влажнoсти вoздуха измеряются на высoте 2 м в тени вдали oт зданий и деревьев.
Скoрoсть ветра измеряется на высoте 10 м (на урoвне рoста челoвека скoрoсть ветра ниже в 1.5-2 раза). Если метеoстанция нахoдится в гoрoде или в лесу, тo скoрoсть ветра занижена на 2-4 м/с пo сравнению с oткрытым местoм. Скoрoсть ветра над акватoриями крупных рек и oзёр, а также на вершинах хoлмoв на 2-5 м/с выше, чем в oбычных услoвиях.
Атмoсфернoе давление в разных тoчках местнoсти мoжет значительнo oтличаться oт давления на метеoстанции, в зависимoсти oт услoвий рельефа (при пoдъёме на 10 м давление пoнижается примернo на 1 мм рт.ст.).